Weather History for Panama City, FL

Change the Weather History Date:

Tuesday, February 26, 2013

  Actual Average Record
Temperature  
Mean Temperature 61 °F -  
Max Temperature 70 °F - 78 °F (2011)
Min Temperature 52 °F - 43 °F (2014)
Degree Days  
Heating Degree Days 4    
Cooling Degree Days 0    
Growing Degree Days 12 (Base 50)    
Moisture  
Dew Point 56 °F    
Average Humidity 79    
Maximum Humidity 97    
Minimum Humidity 60    
Precipitation  
Precipitation 1.38 in - 1.38 in (2013)
Month to date precipitation  
Year to date precipitation  
Sea Level Pressure  
Sea Level Pressure 29.67 in    
Wind  
Wind Speed 16 mph (SSW)    
Max Wind Speed 32 mph    
Max Gust Speed 44 mph    
Visibility 8 miles    
Events Rain , Thunderstorm    
T = Trace of Precipitation, MM = Missing Value Source: NWS Daily Summary

Daily Weather History Graph

Daily Weather History Graph

Search for Another Location

Airport:

Trip Planner

Search our weather history database for the weather conditions in past years. The results will help you decide how hot, cold, wet, or windy it might be!

Date:

Astronomy

Feb. 26, 2013 Rise Set
Actual Time 7:12 AM EST 6:40 PM EST
Civil Twilight 6:48 AM EST 7:04 PM EST
Nautical Twilight 6:20 AM EST 7:32 PM EST
Astronomical Twilight 5:52 AM EST 8:00 PM EST
Moon 7:46 PM EST (2/26) 7:21 AM EST (2/26)
Length of Visible Light 12h 16m
Length of Day
11h 27m
Full, 99% of the Moon is Illuminated
Feb 26
Full
Mar 4
Last Quarter
Mar 11
New
Mar 19
First Quarter
Mar 27
Full

Hourly Weather History & Observations

Time (EST) Temp. Dew Point Humidity Pressure Visibility Wind Dir Wind Speed Gust Speed Precip Events Conditions
12:09 AM 64.4 °F 62.6 °F 94% 29.62 in 10.0 mi East 11.5 mph - 0.00 in Rain Rain
12:33 AM 64.4 °F 62.6 °F 94% 29.60 in 10.0 mi East 11.5 mph - N/A Rain Light Rain
12:44 AM 64.4 °F 62.6 °F 94% 29.60 in 10.0 mi East 11.5 mph - N/A Rain , Thunderstorm Rain
12:53 AM 64.9 °F 63.0 °F 93% 29.63 in 7.0 mi East 10.4 mph - N/A Rain Rain
1:04 AM 64.4 °F 62.6 °F 94% 29.60 in 5.0 mi East 8.1 mph - 0.03 in Rain Heavy Rain
1:53 AM 69.1 °F 66.9 °F 93% 29.57 in 4.0 mi ESE 19.6 mph 26.5 mph 0.14 in Rain Rain
2:17 AM 69.8 °F 68.0 °F 94% 29.55 in 2.5 mi SE 25.3 mph 34.5 mph 0.05 in Rain , Thunderstorm Heavy Rain
2:24 AM 69.8 °F 68.0 °F 94% 29.55 in 1.2 mi SE 31.1 mph 38.0 mph 0.26 in Rain , Thunderstorm Heavy Rain
2:32 AM 69.8 °F 66.2 °F 88% 29.54 in 0.8 mi ESE 19.6 mph 43.7 mph 0.57 in Rain , Thunderstorm Heavy Rain
2:43 AM 69.8 °F 69.8 °F 100% 29.54 in 1.2 mi SSE 15.0 mph 29.9 mph 0.83 in Rain , Thunderstorm Heavy Rain
2:48 AM 69.8 °F 69.8 °F 100% 29.54 in 1.5 mi SE 28.8 mph 38.0 mph 0.92 in Rain Heavy Rain
2:53 AM 70.0 °F 68.0 °F 93% 29.57 in 1.0 mi SE 34.5 mph 41.4 mph 1.09 in Rain Heavy Rain
2:59 AM 69.8 °F 68.0 °F 94% 29.53 in 0.8 mi SE 26.5 mph 41.4 mph 0.11 in Rain Heavy Rain
3:07 AM 69.8 °F 68.0 °F 94% 29.51 in 1.8 mi SE 20.7 mph 33.4 mph 0.17 in Rain Rain
3:10 AM 69.8 °F 69.8 °F 100% 29.51 in 3.0 mi SE 18.4 mph 33.4 mph 0.17 in Rain Light Rain
3:31 AM 69.8 °F 68.0 °F 94% 29.51 in 4.0 mi South 21.9 mph 25.3 mph 0.17 in Rain Light Rain
3:53 AM 70.0 °F 66.9 °F 90% 29.55 in 9.0 mi SSW 8.1 mph - 0.17 in   Overcast
4:49 AM 66.2 °F 62.6 °F 88% 29.55 in 10.0 mi SW 15.0 mph 25.3 mph N/A   Overcast
4:53 AM 66.9 °F 62.1 °F 84% 29.58 in 10.0 mi SW 15.0 mph 27.6 mph N/A   Overcast
5:53 AM 64.0 °F 55.9 °F 75% 29.61 in 10.0 mi SW 13.8 mph - N/A   Overcast
6:53 AM 63.0 °F 53.1 °F 70% 29.64 in 10.0 mi SW 12.7 mph - N/A   Overcast
7:53 AM 61.0 °F 51.1 °F 70% 29.67 in 10.0 mi SW 6.9 mph - N/A   Scattered Clouds
8:53 AM 63.0 °F 50.0 °F 63% 29.70 in 10.0 mi SW 19.6 mph 24.2 mph N/A   Partly Cloudy
9:51 AM 62.6 °F 50.0 °F 63% 29.70 in 10.0 mi SW 19.6 mph 28.8 mph N/A   Mostly Cloudy
9:53 AM 61.0 °F 50.0 °F 67% 29.73 in 10.0 mi SW 17.3 mph 26.5 mph N/A   Mostly Cloudy
10:34 AM 60.8 °F 48.2 °F 63% 29.70 in 10.0 mi SW 17.3 mph 25.3 mph N/A   Mostly Cloudy
10:53 AM 61.0 °F 46.9 °F 60% 29.74 in 10.0 mi SW 20.7 mph 32.2 mph N/A   Partly Cloudy
11:53 AM 62.1 °F 48.0 °F 60% 29.75 in 10.0 mi WSW 21.9 mph 32.2 mph N/A   Partly Cloudy
12:53 PM 62.1 °F 48.9 °F 62% 29.76 in 10.0 mi SW 23.0 mph 33.4 mph N/A   Partly Cloudy
1:53 PM 62.1 °F 48.9 °F 62% 29.76 in 10.0 mi SW 18.4 mph 29.9 mph N/A   Partly Cloudy
2:53 PM 61.0 °F 46.9 °F 60% 29.75 in 10.0 mi SSW 21.9 mph 31.1 mph N/A   Partly Cloudy
3:53 PM 59.0 °F 46.0 °F 62% 29.77 in 10.0 mi SW 19.6 mph 27.6 mph N/A   Partly Cloudy
4:53 PM 57.9 °F 46.9 °F 67% 29.76 in 10.0 mi SW 18.4 mph 25.3 mph N/A   Partly Cloudy
5:46 PM 57.2 °F 48.2 °F 72% 29.74 in 10.0 mi SW 13.8 mph 18.4 mph N/A   Mostly Cloudy
5:53 PM 57.9 °F 46.9 °F 67% 29.78 in 10.0 mi SW 10.4 mph 20.7 mph N/A   Mostly Cloudy
6:53 PM 57.0 °F 46.9 °F 69% 29.81 in 10.0 mi SW 10.4 mph - N/A   Mostly Cloudy
7:53 PM 57.0 °F 46.0 °F 67% 29.83 in 10.0 mi SW 10.4 mph - N/A   Mostly Cloudy
8:53 PM 55.9 °F 46.9 °F 72% 29.87 in 10.0 mi WSW 6.9 mph - N/A   Mostly Cloudy
9:53 PM 55.0 °F 46.0 °F 72% 29.90 in 10.0 mi WSW 6.9 mph - N/A   Mostly Cloudy
10:04 PM 55.4 °F 46.4 °F 72% 29.86 in 10.0 mi WSW 6.9 mph - N/A   Clear
10:53 PM 53.1 °F 46.0 °F 77% 29.91 in 10.0 mi West 4.6 mph - N/A   Clear
11:53 PM 52.0 °F 46.9 °F 83% 29.91 in 10.0 mi WSW 4.6 mph - N/A   Clear